Track ORBCOMM FM113 now! 10-day predictions ORBCOMM FM113 is classified as:
1 41185U 15081G 24325.87361162 .00002293 00000-0 53697-3 0 9993 2 41185 46.9995 99.0097 0001974 213.0007 147.0755 14.57454677475253